Time,TemperatureF,DewpointF,PressureIn,WindDirection,WindDirectionDegrees,WindSpeedMPH,WindSpeedGustMPH,Humidity,HourlyPrecipIn,Conditions,Clouds,dailyrainin,SoftwareType,DateUTC
2013-02-27 00:05:00,34.6,34.0,29.54,ESE,120,5.0,8.0,96,0.03,,,0.03,weatherlink.com 1.10,2013-02-27 06:05:00,
2013-02-27 00:20:00,34.5,34.0,29.54,East,97,1.0,10.0,96,0.03,,,0.04,weatherlink.com 1.10,2013-02-27 06:20:00,
2013-02-27 00:35:00,34.3,34.0,29.53,ENE,59,2.0,8.0,97,0.02,,,0.04,weatherlink.com 1.10,2013-02-27 06:35:00,
2013-02-27 00:50:00,34.5,34.0,29.53,ESE,111,2.0,9.0,97,0.02,,,0.05,weatherlink.com 1.10,2013-02-27 06:50:00,
2013-02-27 01:05:00,34.6,34.0,29.52,NW,317,5.0,10.0,97,0.02,,,0.05,weatherlink.com 1.10,2013-02-27 07:05:00,
2013-02-27 01:20:00,34.8,34.0,29.52,ENE,71,4.0,9.0,97,0.02,,,0.06,weatherlink.com 1.10,2013-02-27 07:20:00,
2013-02-27 01:35:00,34.9,34.0,29.52,ESE,117,6.0,12.0,97,0.03,,,0.07,weatherlink.com 1.10,2013-02-27 07:35:00,
2013-02-27 01:50:00,34.7,34.0,29.52,East,85,5.0,11.0,96,0.03,,,0.08,weatherlink.com 1.10,2013-02-27 07:50:00,
2013-02-27 02:05:00,34.7,34.0,29.51,ESE,123,4.0,10.0,96,0.03,,,0.09,weatherlink.com 1.10,2013-02-27 08:05:00,
2013-02-27 02:20:00,34.7,34.0,29.50,NE,45,5.0,10.0,97,0.04,,,0.10,weatherlink.com 1.10,2013-02-27 08:20:00,
2013-02-27 02:35:00,34.6,34.0,29.50,East,101,2.0,16.0,96,0.03,,,0.10,weatherlink.com 1.10,2013-02-27 08:35:00,
2013-02-27 02:50:00,34.6,34.0,29.49,East,95,2.0,8.0,97,0.03,,,0.11,weatherlink.com 1.10,2013-02-27 08:50:00,
2013-02-27 03:05:00,34.7,34.0,29.49,SE,138,7.0,12.0,97,0.03,,,0.12,weatherlink.com 1.10,2013-02-27 09:05:00,
2013-02-27 03:20:00,34.8,34.0,29.49,NE,52,6.0,8.0,97,0.03,,,0.13,weatherlink.com 1.10,2013-02-27 09:20:00,
2013-02-27 03:35:00,35.0,34.0,29.49,East,81,4.0,8.0,97,0.04,,,0.14,weatherlink.com 1.10,2013-02-27 09:35:00,
2013-02-27 03:50:00,35.1,34.0,29.49,ESE,111,5.0,8.0,97,0.04,,,0.15,weatherlink.com 1.10,2013-02-27 09:50:00,
2013-02-27 04:05:00,35.1,34.0,29.49,SE,132,5.0,8.0,97,0.04,,,0.16,weatherlink.com 1.10,2013-02-27 10:05:00,
2013-02-27 04:20:00,35.2,35.0,29.49,ESE,106,6.0,12.0,97,0.04,,,0.17,weatherlink.com 1.10,2013-02-27 10:20:00,
2013-02-27 04:35:00,35.2,34.0,29.49,East,86,1.0,7.0,96,0.04,,,0.18,weatherlink.com 1.10,2013-02-27 10:35:00,
2013-02-27 04:50:00,35.2,34.0,29.49,East,83,4.0,10.0,96,0.03,,,0.18,weatherlink.com 1.10,2013-02-27 10:50:00,
2013-02-27 05:05:00,35.2,34.0,29.49,ESE,114,4.0,6.0,96,0.03,,,0.19,weatherlink.com 1.10,2013-02-27 11:05:00,
2013-02-27 05:20:00,35.4,35.0,29.50,ESE,113,2.0,10.0,97,0.03,,,0.20,weatherlink.com 1.10,2013-02-27 11:20:00,
2013-02-27 05:35:00,35.5,35.0,29.50,ENE,75,5.0,9.0,97,0.02,,,0.20,weatherlink.com 1.10,2013-02-27 11:35:00,
2013-02-27 05:50:00,35.6,35.0,29.50,SE,134,5.0,8.0,97,0.03,,,0.21,weatherlink.com 1.10,2013-02-27 11:50:00,
2013-02-27 06:05:00,35.6,35.0,29.50,SE,130,2.0,5.0,97,0.03,,,0.22,weatherlink.com 1.10,2013-02-27 12:05:00,
2013-02-27 06:20:00,35.6,35.0,29.50,SE,128,2.0,4.0,97,0.02,,,0.22,weatherlink.com 1.10,2013-02-27 12:20:00,
2013-02-27 06:35:00,35.6,35.0,29.51,SE,125,0.0,1.0,97,0.03,,,0.23,weatherlink.com 1.10,2013-02-27 12:35:00,
2013-02-27 06:50:00,35.7,35.0,29.51,SE,125,0.0,0.0,97,0.02,,,0.23,weatherlink.com 1.10,2013-02-27 12:50:00,
2013-02-27 07:05:00,35.9,35.0,29.52,SE,125,0.0,1.0,97,0.02,,,0.24,weatherlink.com 1.10,2013-02-27 13:05:00,
2013-02-27 07:20:00,36.2,36.0,29.53,South,183,0.0,4.0,97,0.02,,,0.24,weatherlink.com 1.10,2013-02-27 13:20:00,
2013-02-27 07:35:00,36.4,36.0,29.54,SW,214,1.0,4.0,97,0.02,,,0.25,weatherlink.com 1.10,2013-02-27 13:35:00,
2013-02-27 07:51:00,36.5,36.0,29.54,SW,227,1.0,3.0,97,0.03,,,0.26,weatherlink.com 1.10,2013-02-27 13:51:00,
2013-02-27 08:06:00,36.6,36.0,29.55,SW,217,1.0,6.0,97,0.03,,,0.27,weatherlink.com 1.10,2013-02-27 14:06:00,
2013-02-27 08:21:00,36.6,36.0,29.54,South,190,2.0,7.0,97,0.04,,,0.28,weatherlink.com 1.10,2013-02-27 14:21:00,
2013-02-27 08:36:00,36.7,36.0,29.55,WSW,246,1.0,9.0,97,0.05,,,0.30,weatherlink.com 1.10,2013-02-27 14:36:00,
2013-02-27 08:51:00,36.9,36.0,29.54,WSW,239,4.0,8.0,97,0.05,,,0.31,weatherlink.com 1.10,2013-02-27 14:51:00,
2013-02-27 09:06:00,37.4,36.0,29.55,WSW,244,5.0,8.0,95,0.07,,,0.34,weatherlink.com 1.10,2013-02-27 15:06:00,
2013-02-27 09:21:00,37.7,36.0,29.55,WSW,241,1.0,7.0,94,0.09,,,0.37,weatherlink.com 1.10,2013-02-27 15:21:00,
2013-02-27 09:36:00,38.0,36.0,29.55,SW,231,4.0,8.0,93,0.09,,,0.39,weatherlink.com 1.10,2013-02-27 15:36:00,
2013-02-27 09:51:00,38.5,36.0,29.55,South,172,6.0,9.0,91,0.11,,,0.42,weatherlink.com 1.10,2013-02-27 15:51:00,
2013-02-27 10:06:00,38.5,36.0,29.55,WSW,254,5.0,11.0,91,0.11,,,0.45,weatherlink.com 1.10,2013-02-27 16:06:00,
2013-02-27 10:21:00,38.7,36.0,29.56,SW,232,4.0,10.0,90,0.11,,,0.48,weatherlink.com 1.10,2013-02-27 16:21:00,
2013-02-27 10:36:00,38.7,36.0,29.56,SW,214,1.0,9.0,90,0.11,,,0.50,weatherlink.com 1.10,2013-02-27 16:36:00,
2013-02-27 10:51:00,38.8,36.0,29.56,South,180,1.0,6.0,90,0.10,,,0.52,weatherlink.com 1.10,2013-02-27 16:51:00,
2013-02-27 11:21:00,38.6,36.0,29.57,South,179,4.0,8.0,89,0.08,,,0.56,weatherlink.com 1.10,2013-02-27 17:21:00,
2013-02-27 11:36:00,38.6,36.0,29.57,WSW,242,5.0,10.0,89,0.08,,,0.58,weatherlink.com 1.10,2013-02-27 17:36:00,
2013-02-27 11:51:00,38.5,36.0,29.56,West,264,8.0,10.0,89,0.07,,,0.60,weatherlink.com 1.10,2013-02-27 17:51:00,
2013-02-27 12:06:00,38.3,35.0,29.56,SW,214,0.0,10.0,89,0.08,,,0.62,weatherlink.com 1.10,2013-02-27 18:06:00,
2013-02-27 12:21:00,38.2,35.0,29.56,SW,231,4.0,8.0,89,0.08,,,0.64,weatherlink.com 1.10,2013-02-27 18:21:00,
2013-02-27 12:36:00,38.0,35.0,29.56,South,182,1.0,9.0,89,0.07,,,0.65,weatherlink.com 1.10,2013-02-27 18:36:00,
2013-02-27 12:51:00,37.8,35.0,29.56,SW,228,0.0,9.0,89,0.07,,,0.67,weatherlink.com 1.10,2013-02-27 18:51:00,
2013-02-27 13:06:00,38.0,35.0,29.56,WSW,246,4.0,9.0,88,0.06,,,0.68,weatherlink.com 1.10,2013-02-27 19:06:00,
2013-02-27 13:21:00,38.0,35.0,29.56,SSW,211,7.0,8.0,87,0.05,,,0.69,weatherlink.com 1.10,2013-02-27 19:21:00,
2013-02-27 13:36:00,37.9,34.0,29.56,SW,222,6.0,10.0,87,0.05,,,0.70,weatherlink.com 1.10,2013-02-27 19:36:00,
2013-02-27 13:51:00,37.8,34.0,29.56,WSW,252,2.0,9.0,87,0.04,,,0.71,weatherlink.com 1.10,2013-02-27 19:51:00,
2013-02-27 14:09:00,37.7,34.0,29.57,WSW,243,9.0,9.0,87,0.04,,,0.72,weatherlink.com 1.10,2013-02-27 20:09:00,
2013-02-27 14:21:00,37.7,35.0,29.57,South,181,4.0,6.0,88,0.04,,,0.73,weatherlink.com 1.10,2013-02-27 20:21:00,
2013-02-27 14:36:00,37.7,34.0,29.57,WSW,254,5.0,11.0,87,0.04,,,0.74,weatherlink.com 1.10,2013-02-27 20:36:00,
2013-02-27 14:51:00,37.6,34.0,29.57,SW,216,7.0,10.0,87,0.03,,,0.74,weatherlink.com 1.10,2013-02-27 20:51:00,
2013-02-27 15:06:00,37.5,34.0,29.57,SW,223,7.0,12.0,87,0.03,,,0.75,weatherlink.com 1.10,2013-02-27 21:06:00,
2013-02-27 15:21:00,37.5,34.0,29.57,SW,234,4.0,6.0,87,0.03,,,0.76,weatherlink.com 1.10,2013-02-27 21:21:00,
2013-02-27 15:36:00,37.4,34.0,29.57,South,181,0.0,7.0,88,0.03,,,0.77,weatherlink.com 1.10,2013-02-27 21:36:00,
2013-02-27 15:51:00,37.0,34.0,29.58,SW,235,5.0,7.0,90,0.03,,,0.77,weatherlink.com 1.10,2013-02-27 21:51:00,
2013-02-27 16:06:00,36.6,34.0,29.58,SW,227,4.0,6.0,91,0.02,,,0.77,weatherlink.com 1.10,2013-02-27 22:06:00,
2013-02-27 16:21:00,36.5,34.0,29.58,South,188,1.0,8.0,92,0.02,,,0.78,weatherlink.com 1.10,2013-02-27 22:21:00,
2013-02-27 16:36:00,36.4,34.0,29.58,SW,221,1.0,6.0,91,0.01,,,0.78,weatherlink.com 1.10,2013-02-27 22:36:00,
2013-02-27 16:51:00,36.2,34.0,29.59,South,182,2.0,7.0,91,0.02,,,0.79,weatherlink.com 1.10,2013-02-27 22:51:00,
2013-02-27 17:06:00,36.0,34.0,29.59,SSW,194,7.0,10.0,92,0.01,,,0.79,weatherlink.com 1.10,2013-02-27 23:06:00,
2013-02-27 17:21:00,35.8,34.0,29.59,SSW,194,2.0,9.0,92,0.01,,,0.79,weatherlink.com 1.10,2013-02-27 23:21:00,
2013-02-27 17:36:00,35.5,34.0,29.60,SW,221,4.0,7.0,93,0.01,,,0.79,weatherlink.com 1.10,2013-02-27 23:36:00,
2013-02-27 17:51:00,35.3,34.0,29.60,SSW,213,2.0,6.0,93,0.00,,,0.79,weatherlink.com 1.10,2013-02-27 23:51:00,
2013-02-27 18:06:00,35.2,34.0,29.60,SSE,155,2.0,8.0,94,0.01,,,0.80,weatherlink.com 1.10,2013-02-28 00:06:00,
2013-02-27 18:21:00,35.1,34.0,29.60,SSE,159,4.0,7.0,94,0.01,,,0.80,weatherlink.com 1.10,2013-02-28 00:21:00,
2013-02-27 18:36:00,35.0,34.0,29.60,SSW,202,2.0,7.0,94,0.01,,,0.80,weatherlink.com 1.10,2013-02-28 00:36:00,
2013-02-27 18:51:00,35.0,34.0,29.60,South,169,1.0,5.0,94,0.01,,,0.80,weatherlink.com 1.10,2013-02-28 00:51:00,
2013-02-27 19:06:00,34.9,34.0,29.60,WSW,241,4.0,6.0,95,0.00,,,0.80,weatherlink.com 1.10,2013-02-28 01:06:00,
2013-02-27 19:21:00,34.9,34.0,29.60,WSW,250,1.0,7.0,95,0.00,,,0.80,weatherlink.com 1.10,2013-02-28 01:21:00,
2013-02-27 19:36:00,34.9,34.0,29.60,SW,233,5.0,6.0,95,0.00,,,0.80,weatherlink.com 1.10,2013-02-28 01:36:00,
2013-02-27 19:51:00,34.9,34.0,29.60,South,172,2.0,6.0,95,0.00,,,0.80,weatherlink.com 1.10,2013-02-28 01:51:00,
2013-02-27 20:06:00,34.9,34.0,29.60,SSW,198,0.0,5.0,95,0.01,,,0.81,weatherlink.com 1.10,2013-02-28 02:06:00,
2013-02-27 20:21:00,34.8,34.0,29.60,SSW,211,0.0,5.0,95,0.01,,,0.81,weatherlink.com 1.10,2013-02-28 02:21:00,
2013-02-27 20:36:00,34.8,34.0,29.59,SW,220,1.0,4.0,95,0.01,,,0.81,weatherlink.com 1.10,2013-02-28 02:36:00,
2013-02-27 20:51:00,34.8,34.0,29.60,SSW,208,1.0,6.0,95,0.01,,,0.81,weatherlink.com 1.10,2013-02-28 02:51:00,
2013-02-27 21:06:00,34.9,34.0,29.60,SW,219,1.0,6.0,95,0.00,,,0.81,weatherlink.com 1.10,2013-02-28 03:06:00,
2013-02-27 21:21:00,34.9,34.0,29.59,SSW,198,2.0,5.0,95,0.00,,,0.81,weatherlink.com 1.10,2013-02-28 03:21:00,
2013-02-27 21:36:00,34.9,34.0,29.60,SW,232,1.0,5.0,95,0.00,,,0.81,weatherlink.com 1.10,2013-02-28 03:36:00,
2013-02-27 21:51:00,35.0,34.0,29.59,SW,230,1.0,5.0,95,0.00,,,0.81,weatherlink.com 1.10,2013-02-28 03:51:00,
2013-02-27 22:06:00,34.9,34.0,29.59,SW,217,1.0,6.0,95,0.00,,,0.81,weatherlink.com 1.10,2013-02-28 04:06:00,
2013-02-27 22:22:00,34.9,34.0,29.58,West,269,1.0,6.0,95,0.00,,,0.81,weatherlink.com 1.10,2013-02-28 04:22:00,
2013-02-27 22:36:00,34.9,34.0,29.58,WSW,239,2.0,5.0,95,0.00,,,0.81,weatherlink.com 1.10,2013-02-28 04:36:00,
2013-02-27 22:51:00,34.8,34.0,29.58,SW,220,1.0,6.0,95,0.00,,,0.81,weatherlink.com 1.10,2013-02-28 04:51:00,
2013-02-27 23:07:00,34.8,34.0,29.57,WSW,250,4.0,8.0,95,0.01,,,0.01,weatherlink.com 1.10,2013-02-28 05:07:00,
2013-02-27 23:22:00,34.8,34.0,29.57,SW,215,1.0,5.0,95,0.01,,,0.01,weatherlink.com 1.10,2013-02-28 05:22:00,
2013-02-27 23:37:00,34.8,34.0,29.57,WSW,246,2.0,5.0,95,0.01,,,0.01,weatherlink.com 1.10,2013-02-28 05:37:00,
2013-02-27 23:52:00,34.8,34.0,29.57,SSW,213,2.0,6.0,95,0.01,,,0.01,weatherlink.com 1.10,2013-02-28 05:52:00,